Des Moines, IA

12:38 AM CST on February 28, 2017 (GMT -0600)
Des Moines International

Weather History for KDSM - August, 2012

Change the Weather History Date:

Thursday, August 9, 2012

  Actual Average Record
Temperature  
Mean Temperature 75 °F 75 °F  
Max Temperature 84 °F 85 °F 106 °F (1934)
Min Temperature 66 °F 66 °F 46 °F (1888)
Degree Days  
Heating Degree Days 0 0  
Month to date heating degree days 0 0  
Since 1 June heating degree days 6 18  
Since 1 July heating degree days 0 1  
Cooling Degree Days 10 10  
Month to date cooling degree days 133 97  
Year to date cooling degree days 1286 743  
Since 1 June cooling degree days 1078 667  
Growing Degree Days 25 (Base 50)    
Moisture  
Dew Point 62 °F    
Average Humidity 68    
Maximum Humidity 93    
Minimum Humidity 42    
Precipitation  
Precipitation 0.00 in 0.13 in 2.20 in (1889)
Month to date precipitation 1.55 1.21  
Year to date precipitation 17.94 23.80  
Snow  
Snow 0.00 in 0.00 in - ()
Month to date snowfall 0.0 0.0  
Since 1 June snowfall 0.0 0.0  
Since 1 July snowfall 0.0 0.0  
Snow Depth 0.00 in    
Sea Level Pressure  
Sea Level Pressure 29.94 in    
Wind  
Wind Speed 10 mph (North)    
Max Wind Speed 20 mph    
Max Gust Speed 26 mph    
Visibility 9 miles    
Events      
T = Trace of Precipitation, MM = Missing Value Source: NWS Daily Summary

Daily Weather History Graph

Daily Weather History Graph

Search for Another Location

Airport or City:

Trip Planner

Search our weather history database for the weather conditions in past years. The results will help you decide how hot, cold, wet, or windy it might be!

Date:

Astronomy

Aug. 09, 2012 Rise Set
Actual Time 6:17 AM CDT 8:21 PM CDT
Civil Twilight 5:47 AM CDT 8:51 PM CDT
Nautical Twilight 5:10 AM CDT 9:28 PM CDT
Astronomical Twilight 4:29 AM CDT 10:09 PM CDT
Moon No Moon Rise 2:06 PM CDT (8/9)
Length of Visible Light 15h 04m
Length of Day
14h 03m
Waning Gibbous, 51% of the Moon is Illuminated
Aug 9
Waning Gibbous
Aug 9
Last Quarter
Aug 17
New
Aug 24
First Quarter
Aug 31
Full

Hourly Weather History & Observations

Time (CDT) Temp. Heat Index Dew Point Humidity Pressure Visibility Wind Dir Wind Speed Gust Speed Precip Events Conditions
12:54 AM 69.1 °F - 64.0 °F 84% 29.90 in 10.0 mi Calm Calm - N/A   Mostly Cloudy
1:54 AM 69.1 °F - 64.0 °F 84% 29.88 in 10.0 mi Calm Calm - N/A   Scattered Clouds
2:54 AM 69.1 °F - 64.0 °F 84% 29.88 in 10.0 mi NNW 3.5 mph - N/A   Scattered Clouds
3:54 AM 70.0 °F - 64.0 °F 81% 29.89 in 10.0 mi Calm Calm - N/A   Mostly Cloudy
4:54 AM 69.1 °F - 64.9 °F 87% 29.91 in 10.0 mi NNW 6.9 mph - N/A   Overcast
5:05 AM 69.8 °F - 64.4 °F 83% 29.93 in 10.0 mi North 5.8 mph - N/A   Mostly Cloudy
5:43 AM 68.0 °F - 64.4 °F 88% 29.93 in 10.0 mi North 6.9 mph - N/A   Overcast
5:54 AM 68.0 °F - 64.0 °F 87% 29.92 in 10.0 mi North 6.9 mph - N/A   Overcast
6:54 AM 66.9 °F - 64.0 °F 90% 29.94 in 3.0 mi North 9.2 mph - N/A   Overcast
7:13 AM 66.2 °F - 64.4 °F 94% 29.95 in 2.5 mi North 8.1 mph - N/A   Overcast
7:44 AM 68.0 °F - 64.4 °F 88% 29.96 in 3.0 mi North 9.2 mph - N/A   Overcast
7:54 AM 68.0 °F - 64.0 °F 87% 29.95 in 5.0 mi North 10.4 mph 17.3 mph N/A   Overcast
8:54 AM 69.1 °F - 64.9 °F 87% 29.96 in 8.0 mi North 9.2 mph - N/A   Overcast
9:29 AM 71.6 °F - 64.4 °F 78% 29.98 in 10.0 mi NNW 9.2 mph - N/A   Overcast
9:54 AM 73.0 °F - 64.9 °F 76% 29.96 in 10.0 mi NNW 10.4 mph - N/A   Mostly Cloudy
10:07 AM 71.6 °F - 64.4 °F 78% 29.97 in 10.0 mi NNW 10.4 mph - N/A   Overcast
10:54 AM 72.0 °F - 64.0 °F 76% 29.97 in 10.0 mi NNW 11.5 mph - N/A   Overcast
11:54 AM 75.9 °F - 63.0 °F 64% 29.96 in 10.0 mi NNW 11.5 mph 20.7 mph N/A   Mostly Cloudy
12:09 PM 75.2 °F - 62.6 °F 65% 29.98 in 10.0 mi NNE 13.8 mph 21.9 mph N/A   Scattered Clouds
12:54 PM 79.0 °F - 63.0 °F 58% 29.96 in 10.0 mi North 9.2 mph 17.3 mph N/A   Partly Cloudy
1:54 PM 81.0 °F 81.9 °F 62.1 °F 52% 29.94 in 10.0 mi North 10.4 mph - N/A   Partly Cloudy
2:54 PM 82.9 °F 83.7 °F 62.1 °F 49% 29.94 in 10.0 mi NNE 12.7 mph 19.6 mph N/A   Partly Cloudy
3:54 PM 82.9 °F 82.8 °F 59.0 °F 44% 29.92 in 10.0 mi NNW 16.1 mph 21.9 mph N/A   Partly Cloudy
4:54 PM 82.9 °F 82.6 °F 57.9 °F 42% 29.91 in 10.0 mi North 8.1 mph 18.4 mph N/A   Partly Cloudy
5:54 PM 82.9 °F 82.8 °F 59.0 °F 44% 29.91 in 10.0 mi North 8.1 mph - N/A   Partly Cloudy
6:54 PM 82.0 °F 82.1 °F 59.0 °F 45% 29.91 in 10.0 mi North 15.0 mph - N/A   Partly Cloudy
7:54 PM 79.0 °F - 54.0 °F 42% 29.93 in 10.0 mi North 15.0 mph 21.9 mph N/A   Scattered Clouds
8:54 PM 75.9 °F - 54.0 °F 46% 29.95 in 10.0 mi North 11.5 mph 18.4 mph N/A   Scattered Clouds
9:54 PM 73.0 °F - 55.0 °F 53% 29.97 in 10.0 mi North 12.7 mph 20.7 mph N/A   Partly Cloudy
10:54 PM 70.0 °F - 55.9 °F 61% 29.99 in 10.0 mi NE 12.7 mph - N/A   Partly Cloudy
11:54 PM 68.0 °F - 55.9 °F 65% 29.99 in 10.0 mi NNE 10.4 mph - N/A   Clear